Вернуться в каталог

COSMOS 1823 DEB

АктивенLEO
NORAD 29360·DEBRIS·🇷🇺 Russia

Запущен Feb 20, 1987 с Plesetsk Cosmodrome

Loading…

Ближайшие Пролёты (ближайшие 24 часа)

TLE

СвежийSource: Space-Track

Эпоха: Sep 13, 2026, 03:17 UTC

1 29360U 87020EB  26256.13696696  .00000312  00000-0  24550-2 0  9998
2 29360  73.7077 141.7778 0063762  84.9238  67.1872 12.39628687156146

Отслеживайте COSMOS 1823 DEB в реальном времени с AllMySat

Download on the App Store